Time,TemperatureF,DewpointF,PressureIn,WindDirection,WindDirectionDegrees,WindSpeedMPH,WindSpeedGustMPH,Humidity,HourlyPrecipIn,Conditions,Clouds,dailyrainin,SoftwareType,DateUTC
2013-03-29 00:03:00,32.0,29.0,-100.00,ESE,120,4.0,6.0,88,0.00,,,-99.99,,2013-03-29 05:03:00,
2013-03-29 00:12:00,32.0,29.0,-100.00,ESE,120,4.0,6.0,88,0.00,,,-99.99,,2013-03-29 05:12:00,
2013-03-29 00:33:00,31.0,28.0,-100.00,ESE,115,3.0,4.0,88,0.00,,,-99.99,,2013-03-29 05:33:00,
2013-03-29 00:43:00,31.0,28.0,-100.00,ESE,115,3.0,4.0,88,0.00,,,-99.99,,2013-03-29 05:43:00,
2013-03-29 00:52:00,31.0,28.0,-100.00,ESE,120,2.0,4.0,88,0.00,,,-99.99,,2013-03-29 05:52:00,
2013-03-29 01:02:00,31.0,28.0,-100.00,ESE,120,2.0,4.0,88,0.00,,,-99.99,,2013-03-29 06:02:00,
2013-03-29 01:12:00,31.0,28.0,-100.00,SE,130,2.0,5.0,88,0.00,,,-99.99,,2013-03-29 06:12:00,
2013-03-29 01:23:00,31.0,28.0,-100.00,SE,135,3.0,4.0,88,0.00,,,-99.99,,2013-03-29 06:23:00,
2013-03-29 01:32:00,31.0,28.0,-100.00,SE,135,3.0,4.0,88,0.00,,,-99.99,,2013-03-29 06:32:00,
2013-03-29 01:42:00,31.0,28.0,-100.00,ESE,115,3.0,4.0,88,0.00,,,-99.99,,2013-03-29 06:42:00,
2013-03-29 01:52:00,31.0,28.0,-100.00,ESE,120,2.0,4.0,88,0.00,,,-99.99,,2013-03-29 06:52:00,
2013-03-29 02:03:00,31.0,28.0,-100.00,ESE,120,2.0,4.0,88,0.00,,,-99.99,,2013-03-29 07:03:00,
2013-03-29 02:12:00,30.0,27.0,-100.00,SE,135,2.0,5.0,88,0.00,,,-99.99,,2013-03-29 07:12:00,
2013-03-29 02:22:00,30.0,27.0,-100.00,SSE,155,2.0,2.0,88,0.00,,,-99.99,,2013-03-29 07:22:00,
2013-03-29 02:32:00,30.0,27.0,-100.00,SSE,155,2.0,2.0,88,0.00,,,-99.99,,2013-03-29 07:32:00,
2013-03-29 02:42:00,30.0,27.0,-100.00,SSE,155,2.0,2.0,88,0.00,,,-99.99,,2013-03-29 07:42:00,
2013-03-29 02:52:00,30.0,27.0,-100.00,SSE,155,2.0,2.0,88,0.00,,,-99.99,,2013-03-29 07:52:00,
2013-03-29 03:02:00,30.0,28.0,-100.00,ESE,120,3.0,4.0,89,0.00,,,-99.99,,2013-03-29 08:02:00,
2013-03-29 03:12:00,30.0,28.0,-100.00,ESE,120,3.0,4.0,89,0.00,,,-99.99,,2013-03-29 08:12:00,
2013-03-29 03:22:00,30.0,28.0,-100.00,ESE,120,3.0,4.0,89,0.00,,,-99.99,,2013-03-29 08:22:00,
2013-03-29 03:32:00,30.0,28.0,-100.00,ESE,120,3.0,4.0,89,0.00,,,-99.99,,2013-03-29 08:32:00,
2013-03-29 03:42:00,30.0,28.0,-100.00,ESE,120,3.0,4.0,89,0.00,,,-99.99,,2013-03-29 08:42:00,
2013-03-29 03:53:00,31.0,27.0,-100.00,SE,135,2.0,4.0,87,0.00,,,-99.99,,2013-03-29 08:53:00,
2013-03-29 04:02:00,30.0,27.0,-100.00,SE,135,2.0,2.0,88,0.00,,,-99.99,,2013-03-29 09:02:00,
2013-03-29 04:13:00,30.0,27.0,-100.00,SE,135,2.0,2.0,88,0.00,,,-99.99,,2013-03-29 09:13:00,
2013-03-29 04:22:00,29.0,26.0,-100.00,SSE,150,2.0,4.0,88,0.00,,,-99.99,,2013-03-29 09:22:00,
2013-03-29 04:32:00,29.0,26.0,-100.00,SSE,160,1.0,3.0,89,0.00,,,-99.99,,2013-03-29 09:32:00,
2013-03-29 04:42:00,29.0,26.0,-100.00,SSE,160,1.0,3.0,89,0.00,,,-99.99,,2013-03-29 09:42:00,
2013-03-29 04:52:00,29.0,26.0,-100.00,SSE,160,1.0,3.0,89,0.00,,,-99.99,,2013-03-29 09:52:00,
2013-03-29 05:02:00,29.0,26.0,-100.00,SSE,160,1.0,3.0,89,0.00,,,-99.99,,2013-03-29 10:02:00,
2013-03-29 05:12:00,29.0,26.0,-100.00,SSE,160,1.0,3.0,89,0.00,,,-99.99,,2013-03-29 10:12:00,
2013-03-29 05:23:00,31.0,27.0,-100.00,ESE,120,4.0,5.0,87,0.00,,,-99.99,,2013-03-29 10:23:00,
2013-03-29 05:33:00,30.0,27.0,-100.00,SE,130,4.0,6.0,87,0.00,,,-99.99,,2013-03-29 10:33:00,
2013-03-29 05:42:00,30.0,27.0,-100.00,SE,130,4.0,6.0,87,0.00,,,-99.99,,2013-03-29 10:42:00,
2013-03-29 05:53:00,30.0,27.0,-100.00,ESE,110,4.0,6.0,87,0.00,,,-99.99,,2013-03-29 10:53:00,
2013-03-29 06:03:00,30.0,27.0,-100.00,ESE,110,4.0,6.0,87,0.00,,,-99.99,,2013-03-29 11:03:00,
2013-03-29 06:12:00,30.0,27.0,-100.00,SE,125,4.0,6.0,87,0.00,,,-99.99,,2013-03-29 11:12:00,
2013-03-29 06:23:00,30.0,27.0,-100.00,ESE,115,4.0,6.0,86,0.00,,,-99.99,,2013-03-29 11:23:00,
2013-03-29 06:32:00,31.0,27.0,-100.00,ESE,115,4.0,6.0,86,0.00,,,-99.99,,2013-03-29 11:32:00,
2013-03-29 06:42:00,30.0,27.0,-100.00,ESE,115,3.0,5.0,86,0.00,,,-99.99,,2013-03-29 11:42:00,
2013-03-29 06:52:00,30.0,26.0,-100.00,ESE,120,4.0,6.0,86,0.00,,,-99.99,,2013-03-29 11:52:00,
2013-03-29 07:02:00,30.0,26.0,-100.00,SE,130,4.0,6.0,86,0.00,,,-99.99,,2013-03-29 12:02:00,
2013-03-29 07:12:00,30.0,27.0,-100.00,SSE,150,2.0,6.0,86,0.00,,,-99.99,,2013-03-29 12:12:00,
2013-03-29 07:22:00,29.0,26.0,-100.00,SE,145,1.0,3.0,86,0.00,,,-99.99,,2013-03-29 12:22:00,
2013-03-29 07:32:00,31.0,27.0,-100.00,SE,125,5.0,6.0,85,0.00,,,-99.99,,2013-03-29 12:32:00,
2013-03-29 07:42:00,31.0,27.0,-100.00,SE,125,5.0,6.0,85,0.00,,,-99.99,,2013-03-29 12:42:00,
2013-03-29 07:52:00,32.0,27.0,-100.00,SSE,165,2.0,4.0,82,0.00,,,-99.99,,2013-03-29 12:52:00,
2013-03-29 08:03:00,32.0,27.0,-100.00,SSE,165,2.0,4.0,82,0.00,,,-99.99,,2013-03-29 13:03:00,
2013-03-29 08:12:00,33.0,28.0,-100.00,South,175,1.0,3.0,82,0.00,,,-99.99,,2013-03-29 13:12:00,
2013-03-29 08:22:00,33.0,28.0,-100.00,South,175,1.0,3.0,82,0.00,,,-99.99,,2013-03-29 13:22:00,
2013-03-29 08:32:00,35.0,29.0,-100.00,SSE,160,1.0,4.0,77,0.00,,,-99.99,,2013-03-29 13:32:00,
2013-03-29 08:42:00,35.0,29.0,-100.00,SSE,160,1.0,4.0,77,0.00,,,-99.99,,2013-03-29 13:42:00,
2013-03-29 08:52:00,36.0,29.0,-100.00,SSE,155,3.0,5.0,74,0.00,,,-99.99,,2013-03-29 13:52:00,
2013-03-29 09:03:00,36.0,29.0,-100.00,SSE,155,3.0,5.0,74,0.00,,,-99.99,,2013-03-29 14:03:00,
2013-03-29 09:12:00,37.0,29.0,-100.00,SE,140,5.0,6.0,72,0.00,,,-99.99,,2013-03-29 14:12:00,
2013-03-29 09:22:00,39.0,29.0,-100.00,SE,140,4.0,7.0,69,0.00,,,-99.99,,2013-03-29 14:22:00,
2013-03-29 09:32:00,39.0,29.0,-100.00,SE,145,4.0,7.0,66,0.00,,,-99.99,,2013-03-29 14:32:00,
2013-03-29 09:42:00,39.0,29.0,-100.00,SE,145,4.0,7.0,66,0.00,,,-99.99,,2013-03-29 14:42:00,
2013-03-29 09:52:00,38.0,28.0,-100.00,SE,145,7.0,9.0,68,0.00,,,-99.99,,2013-03-29 14:52:00,
2013-03-29 10:02:00,38.0,28.0,-100.00,SE,145,7.0,9.0,68,0.00,,,-99.99,,2013-03-29 15:02:00,
2013-03-29 10:12:00,37.0,28.0,-100.00,SE,135,7.0,10.0,69,0.00,,,-99.99,,2013-03-29 15:12:00,
2013-03-29 10:22:00,38.0,29.0,-100.00,SE,135,6.0,9.0,70,0.00,,,-99.99,,2013-03-29 15:22:00,
2013-03-29 10:33:00,41.0,30.0,-100.00,SSE,155,5.0,9.0,65,0.00,,,-99.99,,2013-03-29 15:33:00,
2013-03-29 10:43:00,41.0,30.0,-100.00,SSE,155,5.0,9.0,65,0.00,,,-99.99,,2013-03-29 15:43:00,
2013-03-29 10:52:00,41.0,30.0,-100.00,SE,145,7.0,10.0,65,0.00,,,-99.99,,2013-03-29 15:52:00,
2013-03-29 11:03:00,41.0,30.0,-100.00,SE,145,7.0,10.0,65,0.00,,,-99.99,,2013-03-29 16:03:00,
2013-03-29 11:12:00,41.0,30.0,-100.00,SE,145,7.0,10.0,65,0.00,,,-99.99,,2013-03-29 16:12:00,
2013-03-29 11:23:00,41.0,30.0,-100.00,SSE,160,7.0,11.0,66,0.00,,,-99.99,,2013-03-29 16:23:00,
2013-03-29 11:32:00,42.0,32.0,-100.00,SE,135,7.0,10.0,66,0.00,,,-99.99,,2013-03-29 16:32:00,
2013-03-29 11:42:00,42.0,32.0,-100.00,SE,135,7.0,10.0,66,0.00,,,-99.99,,2013-03-29 16:42:00,
2013-03-29 11:53:00,43.0,33.0,-100.00,South,170,5.0,8.0,66,0.00,,,-99.99,,2013-03-29 16:53:00,
2013-03-29 12:03:00,43.0,33.0,-100.00,South,170,5.0,8.0,66,0.00,,,-99.99,,2013-03-29 17:03:00,
2013-03-29 12:12:00,44.0,33.0,-100.00,SSE,150,6.0,10.0,65,0.00,,,-99.99,,2013-03-29 17:12:00,
2013-03-29 12:22:00,44.0,33.0,-100.00,SSE,160,7.0,11.0,65,0.00,,,-99.99,,2013-03-29 17:22:00,
2013-03-29 12:33:00,45.0,34.0,-100.00,South,170,9.0,13.0,65,0.00,,,-99.99,,2013-03-29 17:33:00,
2013-03-29 12:42:00,45.0,34.0,-100.00,South,170,9.0,13.0,65,0.00,,,-99.99,,2013-03-29 17:42:00,
2013-03-29 12:52:00,45.0,35.0,-100.00,SSE,160,7.0,12.0,65,0.00,,,-99.99,,2013-03-29 17:52:00,
2013-03-29 13:02:00,45.0,35.0,-100.00,SSE,160,6.0,11.0,66,0.00,,,-99.99,,2013-03-29 18:02:00,
2013-03-29 13:12:00,47.0,36.0,-100.00,SSE,160,7.0,10.0,65,0.00,,,-99.99,,2013-03-29 18:12:00,
2013-03-29 13:22:00,47.0,36.0,-100.00,SSE,160,7.0,12.0,65,0.00,,,-99.99,,2013-03-29 18:22:00,
2013-03-29 13:32:00,47.0,35.0,-100.00,South,170,14.0,19.0,61,0.00,,,-99.99,,2013-03-29 18:32:00,
2013-03-29 13:42:00,47.0,35.0,-100.00,South,170,14.0,19.0,61,0.00,,,-99.99,,2013-03-29 18:42:00,
2013-03-29 13:52:00,47.0,35.0,-100.00,South,175,14.0,20.0,64,0.00,,,-99.99,,2013-03-29 18:52:00,
2013-03-29 14:02:00,47.0,35.0,-100.00,South,175,14.0,20.0,64,0.00,,,-99.99,,2013-03-29 19:02:00,
2013-03-29 14:12:00,47.0,37.0,-100.00,South,175,13.0,17.0,67,0.00,,,-99.99,,2013-03-29 19:12:00,
2013-03-29 14:22:00,49.0,38.0,-100.00,South,170,10.0,17.0,67,0.00,,,-99.99,,2013-03-29 19:22:00,
2013-03-29 14:32:00,49.0,39.0,-100.00,SSE,160,9.0,16.0,67,0.00,,,-99.99,,2013-03-29 19:32:00,
2013-03-29 14:42:00,49.0,39.0,-100.00,SSE,160,9.0,16.0,67,0.00,,,-99.99,,2013-03-29 19:42:00,
2013-03-29 14:52:00,50.0,38.0,-100.00,SSE,165,12.0,17.0,64,0.00,,,-99.99,,2013-03-29 19:52:00,
2013-03-29 15:02:00,50.0,38.0,-100.00,SSE,165,12.0,17.0,64,0.00,,,-99.99,,2013-03-29 20:02:00,
2013-03-29 15:12:00,50.0,37.0,-100.00,South,170,12.0,17.0,61,0.00,,,-99.99,,2013-03-29 20:12:00,
2013-03-29 15:22:00,51.0,38.0,-100.00,SSE,165,12.0,15.0,61,0.00,,,-99.99,,2013-03-29 20:22:00,
2013-03-29 15:33:00,51.0,38.0,-100.00,South,170,12.0,17.0,60,0.00,,,-99.99,,2013-03-29 20:33:00,
2013-03-29 15:42:00,51.0,38.0,-100.00,South,170,12.0,17.0,60,0.00,,,-99.99,,2013-03-29 20:42:00,
2013-03-29 15:52:00,51.0,37.0,-100.00,SSE,165,12.0,19.0,58,0.00,,,-99.99,,2013-03-29 20:52:00,
2013-03-29 16:02:00,51.0,37.0,-100.00,South,170,14.0,17.0,58,0.00,,,-99.99,,2013-03-29 21:02:00,
2013-03-29 16:12:00,51.0,37.0,-100.00,South,170,12.0,17.0,59,0.00,,,-99.99,,2013-03-29 21:12:00,
2013-03-29 16:22:00,51.0,38.0,-100.00,South,170,13.0,17.0,59,0.00,,,-99.99,,2013-03-29 21:22:00,
2013-03-29 16:33:00,51.0,38.0,-100.00,South,175,11.0,17.0,60,0.00,,,-99.99,,2013-03-29 21:33:00,
2013-03-29 16:42:00,51.0,38.0,-100.00,SSE,160,11.0,16.0,60,0.00,,,-99.99,,2013-03-29 21:42:00,
2013-03-29 16:53:00,52.0,39.0,-100.00,South,170,12.0,16.0,61,0.00,,,-99.99,,2013-03-29 21:53:00,
2013-03-29 17:03:00,52.0,39.0,-100.00,South,170,12.0,16.0,61,0.00,,,-99.99,,2013-03-29 22:03:00,
2013-03-29 17:12:00,52.0,39.0,-100.00,SSE,165,11.0,15.0,61,0.00,,,-99.99,,2013-03-29 22:12:00,
2013-03-29 17:22:00,51.0,39.0,-100.00,SSE,160,9.0,14.0,62,0.00,,,-99.99,,2013-03-29 22:22:00,
2013-03-29 17:33:00,52.0,39.0,-100.00,SSE,165,10.0,14.0,62,0.00,,,-99.99,,2013-03-29 22:33:00,
2013-03-29 17:42:00,52.0,40.0,-100.00,SSE,150,7.0,12.0,62,0.00,,,-99.99,,2013-03-29 22:42:00,
2013-03-29 17:52:00,51.0,39.0,-100.00,SSE,155,7.0,12.0,62,0.00,,,-99.99,,2013-03-29 22:52:00,
2013-03-29 18:02:00,51.0,39.0,-100.00,SSE,155,7.0,12.0,62,0.00,,,-99.99,,2013-03-29 23:02:00,
2013-03-29 18:12:00,51.0,39.0,-100.00,SSE,150,7.0,11.0,62,0.00,,,-99.99,,2013-03-29 23:12:00,
2013-03-29 18:22:00,51.0,39.0,-100.00,SSE,155,7.0,10.0,62,0.00,,,-99.99,,2013-03-29 23:22:00,
2013-03-29 18:32:00,51.0,39.0,-100.00,SSE,155,7.0,10.0,62,0.00,,,-99.99,,2013-03-29 23:32:00,
2013-03-29 18:42:00,51.0,39.0,-100.00,SSE,155,7.0,10.0,62,0.00,,,-99.99,,2013-03-29 23:42:00,
2013-03-29 18:52:00,50.0,39.0,-100.00,SSE,165,2.0,9.0,67,0.00,,,-99.99,,2013-03-29 23:52:00,
2013-03-29 19:03:00,50.0,39.0,-100.00,SSE,165,2.0,9.0,67,0.00,,,-99.99,,2013-03-30 00:03:00,
2013-03-29 19:12:00,49.0,39.0,-100.00,South,170,4.0,6.0,67,0.00,,,-99.99,,2013-03-30 00:12:00,
2013-03-29 19:22:00,49.0,39.0,-100.00,SSE,160,3.0,6.0,69,0.00,,,-99.99,,2013-03-30 00:22:00,
2013-03-29 19:32:00,47.0,38.0,-100.00,SSE,155,4.0,6.0,72,0.00,,,-99.99,,2013-03-30 00:32:00,
2013-03-29 19:42:00,47.0,38.0,-100.00,SSE,155,4.0,6.0,72,0.00,,,-99.99,,2013-03-30 00:42:00,
2013-03-29 19:52:00,46.0,38.0,-100.00,SSE,155,4.0,6.0,73,0.00,,,-99.99,,2013-03-30 00:52:00,
2013-03-29 20:02:00,45.0,38.0,-100.00,SSE,155,4.0,7.0,74,0.00,,,-99.99,,2013-03-30 01:02:00,
2013-03-29 20:12:00,45.0,38.0,-100.00,SSE,150,4.0,7.0,75,0.00,,,-99.99,,2013-03-30 01:12:00,
2013-03-29 20:22:00,45.0,37.0,-100.00,SSE,155,4.0,7.0,75,0.00,,,-99.99,,2013-03-30 01:22:00,
2013-03-29 20:32:00,45.0,37.0,-100.00,SSE,155,4.0,7.0,75,0.00,,,-99.99,,2013-03-30 01:32:00,
2013-03-29 20:42:00,45.0,37.0,-100.00,SSE,155,4.0,7.0,75,0.00,,,-99.99,,2013-03-30 01:42:00,
2013-03-29 20:52:00,45.0,37.0,-100.00,SSE,155,4.0,7.0,75,0.00,,,-99.99,,2013-03-30 01:52:00,
2013-03-29 21:02:00,45.0,37.0,-100.00,SSE,155,4.0,7.0,75,0.00,,,-99.99,,2013-03-30 02:02:00,
2013-03-29 21:22:00,45.0,37.0,-100.00,SSE,155,6.0,11.0,70,0.00,,,-99.99,,2013-03-30 02:22:00,
2013-03-29 21:33:00,46.0,37.0,-100.00,SE,145,7.0,11.0,70,0.00,,,-99.99,,2013-03-30 02:33:00,
2013-03-29 21:43:00,45.0,36.0,-100.00,SE,140,7.0,11.0,69,0.00,,,-99.99,,2013-03-30 02:43:00,
2013-03-29 21:53:00,45.0,36.0,-100.00,SE,140,7.0,11.0,69,0.00,,,-99.99,,2013-03-30 02:53:00,
2013-03-29 22:02:00,45.0,36.0,-100.00,SE,140,7.0,11.0,69,0.00,,,-99.99,,2013-03-30 03:02:00,
2013-03-29 22:12:00,45.0,36.0,-100.00,SE,140,7.0,11.0,69,0.00,,,-99.99,,2013-03-30 03:12:00,
2013-03-29 22:22:00,44.0,35.0,-100.00,SE,140,8.0,12.0,71,0.00,,,-99.99,,2013-03-30 03:22:00,
2013-03-29 22:33:00,44.0,35.0,-100.00,SE,135,8.0,14.0,71,0.00,,,-99.99,,2013-03-30 03:33:00,
2013-03-29 22:43:00,44.0,35.0,-100.00,SE,135,8.0,14.0,71,0.00,,,-99.99,,2013-03-30 03:43:00,
2013-03-29 22:53:00,44.0,35.0,-100.00,SE,135,8.0,14.0,71,0.00,,,-99.99,,2013-03-30 03:53:00,
2013-03-29 23:02:00,43.0,35.0,-100.00,SE,140,8.0,18.0,71,0.00,,,-99.99,,2013-03-30 04:02:00,
2013-03-29 23:12:00,43.0,35.0,-100.00,SSE,150,6.0,12.0,71,0.00,,,-99.99,,2013-03-30 04:12:00,
2013-03-29 23:23:00,43.0,35.0,-100.00,SSE,150,6.0,12.0,71,0.00,,,-99.99,,2013-03-30 04:23:00,
2013-03-29 23:32:00,42.0,34.0,-100.00,SSE,150,7.0,13.0,71,0.00,,,-99.99,,2013-03-30 04:32:00,
2013-03-29 23:43:00,42.0,34.0,-100.00,SSE,150,7.0,13.0,71,0.00,,,-99.99,,2013-03-30 04:43:00,
2013-03-29 23:52:00,42.0,34.0,-100.00,SSE,160,7.0,14.0,72,0.00,,,-99.99,,2013-03-30 04:52:00,